Temp
61 61 61 62 62 62 62 62 62 62 62 63 63 63 63 63 65 63 54 60 63 66 64 62 64 66 65 59 59 57 45 41 42 44 45 51 49 55 54 50 52 55 51 55 57
61 61 61 61 61 61 62 62 62 62 62 62 63 63 63 63 60 56 64 68 67 66 64 63 62 64 56 56 55 49 41 42 47 45 44 50 49 49 48 49 48 49 53 55 56
60 60 61 61 61 61 61 61 61 61 62 62 62 63 63 61 57 57 68 68 68 66 64 64 65 62 54 53 52 49 43 48 48 51 52 52 49 51 46 45 46 47 48 51 52
60 60 60 60 61 61 61 61 61 61 62 62 62 62 62 58 47 60 67 68 68 66 65 63 62 54 49 48 53 47 51 51 52 53 52 49 52 49 48 47 53 49 50 50 51
59 59 59 60 60 61 61 61 61 61 62 62 62 62 58 54 52 65 66 66 67 66 62 61 58 54 48 51 52 47 48 52 52 52 50 53 48 48 48 49 53 55 54 51 51
59 59 59 59 60 61 61 61 61 61 62 62 63 62 56 49 62 66 64 64 63 63 60 59 57 57 52 50 49 50 51 50 51 50 51 48 47 48 49 51 51 53 51 50 52
59 59 59 59 60 60 60 60 60 61 61 63 63 62 54 51 62 63 64 63 63 62 59 59 59 57 53 48 54 52 45 46 47 50 47 48 44 44 49 51 49 50 51 51 52
58 58 58 58 59 59 60 60 60 61 62 63 64 57 48 61 59 62 63 63 64 64 61 60 61 56 52 52 51 45 43 37 45 47 48 46 37 49 50 47 46 47 46 50 51
58 58 58 58 58 59 59 59 60 62 63 64 56 54 46 62 57 60 60 58 59 61 60 65 59 51 50 44 40 40 33 37 41 47 45 43 37 48 50 48 45 45 47 48 49
58 58 58 58 58 58 59 60 62 61 62 64 63 51 53 51 55 58 59 60 56 56 56 55 50 43 41 39 32 32 33 39 35 42 42 39 39 46 49 47 45 44 46 46 48
58 58 58 58 58 59 56 54 52 51 52 47 48 50 52 57 57 55 57 56 56 53 44 48 40 33 36 40 42 39 36 35 39 43 40 37 38 43 46 45 44 44 44 44 47
58 58 58 58 58 59 53 51 52 54 45 52 54 53 55 54 50 53 57 50 49 43 46 42 35 41 45 44 42 39 34 33 39 43 40 37 39 43 44 46 45 45 44 45 45
58 58 58 58 58 54 52 52 56 54 48 49 52 53 52 53 47 48 52 49 46 43 40 38 39 46 44 41 41 37 33 31 32 38 40 37 35 41 43 46 46 48 47 46 44
58 58 57 57 53 53 51 55 56 52 36 44 47 50 53 52 46 53 52 48 45 41 39 37 42 42 39 39 40 34 38 37 36 30 29 37 26 35 40 43 44 45 44 44 42
57 57 57 58 50 51 53 56 54 52 28 46 47 55 52 49 48 48 52 50 42 41 40 35 36 36 37 37 40 36 39 36 35 31 28 31 24 33 38 40 41 43 44 45 44
57 57 57 54 50 52 55 52 50 35 28 36 47 46 46 47 46 48 47 50 48 42 40 35 41 38 37 41 40 41 36 35 33 30 16 30 27 31 35 40 39 42 44 45 43
56 56 55 56 50 53 52 48 32 26 40 36 39 45 44 42 43 44 43 39 34 31 27 35 34 38 40 34 38 36 30 18 21 19 20 31 25 34 40 42 43 42 41 41 42
56 56 53 55 53 52 49 39 23 29 33 44 45 46 41 44 41 42 39 34 37 34 24 27 27 33 39 34 32 32 30 21 20 20 23 28 28 38 43 43 44 45 42 44 44
55 50 48 50 53 50 44 24 31 35 41 42 44 36 37 43 42 41 38 33 36 36 31 25 28 35 37 38 36 33 26 34 21 15 19 26 34 40 41 40 41 41 43 42 40
49 46 47 51 52 48 36 34 34 46 47 45 38 40 33 39 38 38 38 41 38 38 36 32 27 31 34 37 37 33 38 26 22 18 19 23 28 32 36 39 41 41 41 39 39
48 42 46 50 50 41 30 32 38 47 49 43 37 38 43 40 41 39 40 39 41 37 38 30 30 29 32 27 31 31 27 31 30 26 19 15 29 36 41 44 43 43 44 39 38
46 33 46 47 35 31 29 36 46 45 46 46 45 44 44 44 42 41 40 41 42 40 36 36 32 24 27 31 36 34 33 33 24 22 20 22 28 41 41 42 43 43 44 42 40
41 39 46 44 28 27 30 40 45 42 43 44 44 46 46 43 38 40 38 42 43 41 37 38 29 22 28 29 31 29 33 34 31 27 21 22 28 41 39 39 42 41 41 41 40
40 32 37 39 33 32 29 33 38 45 45 47 45 46 43 35 41 36 35 39 40 40 44 42 26 29 29 32 31 25 27 32 29 18 24 27 31 39 33 33 38 36 34 35 35
40 34 35 29 28 34 39 38 38 35 43 45 40 43 43 32 30 32 35 35 39 42 38 37 28 22 24 32 33 31 28 26 26 31 29 33 28 41 32 35 36 36 38 33 31
37 35 37 29 39 38 38 35 40 39 40 40 40 43 43 39 42 35 36 35 38 36 36 39 31 27 24 24 28 27 30 28 30 25 27 29 33 46 49 40 33 34 32 33 34
44 43 43 37 36 36 37 35 41 44 43 45 46 43 42 44 40 40 42 43 42 37 34 35 32 30 28 22 27 27 30 31 28 30 33 28 41 39 39 42 40 39 37 35 37
MSLP
1020.41 1020.14 1020.15 1020.05 1019.88 1019.79 1019.65 1019.34 1019.16 1018.95 1018.70 1018.40 1018.07 1018.06 1017.97 1017.62 1017.17 1017.33 1018.12 1018.35 1017.68 1016.96 1016.78 1016.33 1015.73 1015.44 1015.37 1015.58 1015.54 1015.99 1017.44 1018.93 1019.23 1019.21 1019.58 1019.34 1019.46 1019.42 1019.42 1019.75 1019.93 1020.09 1020.53 1020.73 1020.78
1020.49 1020.11 1020.17 1020.06 1019.97 1019.73 1019.59 1019.45 1019.09 1018.93 1018.73 1018.46 1018.38 1018.13 1018.08 1017.76 1017.58 1017.86 1018.40 1017.80 1017.29 1016.96 1016.58 1016.47 1016.06 1015.64 1016.02 1016.30 1016.62 1017.08 1018.60 1019.40 1019.55 1019.61 1019.95 1019.80 1019.71 1019.78 1019.89 1019.98 1020.26 1020.56 1020.62 1020.74 1020.73
1020.34 1020.10 1020.03 1020.09 1019.81 1019.65 1019.45 1019.49 1019.28 1018.95 1018.82 1018.57 1018.18 1018.20 1018.04 1017.98 1017.81 1018.24 1017.90 1017.46 1017.06 1016.80 1016.77 1016.46 1016.11 1015.89 1016.43 1017.14 1017.48 1017.94 1019.13 1019.67 1019.95 1019.85 1020.00 1020.08 1020.09 1019.99 1020.07 1020.23 1020.42 1020.60 1020.66 1020.75 1020.79
1020.50 1020.26 1020.10 1019.88 1019.81 1019.65 1019.44 1019.35 1019.33 1018.94 1018.39 1018.40 1018.25 1018.17 1018.12 1018.04 1018.68 1018.18 1017.75 1017.18 1016.67 1016.55 1016.59 1016.31 1016.36 1016.40 1017.16 1017.84 1017.88 1018.87 1019.41 1019.53 1020.07 1020.09 1020.42 1020.60 1020.49 1020.24 1020.19 1020.16 1020.18 1020.28 1020.50 1020.67 1020.84
1020.48 1020.34 1019.92 1019.88 1019.58 1019.47 1019.37 1019.15 1019.00 1018.90 1018.68 1017.98 1017.71 1017.92 1018.18 1018.20 1018.88 1018.25 1017.78 1017.14 1016.48 1016.32 1016.58 1016.50 1016.50 1016.97 1017.61 1018.20 1018.58 1019.23 1019.66 1019.84 1020.04 1020.03 1020.53 1020.72 1020.78 1020.75 1020.11 1020.06 1020.07 1020.25 1020.47 1020.67 1020.72
1020.37 1020.31 1019.89 1019.86 1019.79 1019.26 1019.06 1018.82 1018.70 1018.60 1018.34 1018.19 1017.67 1017.60 1018.23 1018.50 1018.73 1018.38 1017.93 1017.42 1017.03 1016.64 1016.98 1016.92 1017.13 1017.29 1017.87 1018.69 1018.99 1019.46 1019.72 1019.99 1020.02 1020.05 1020.43 1020.81 1020.84 1020.97 1019.73 1019.81 1020.09 1020.34 1020.30 1020.34 1020.34
1020.20 1020.25 1019.99 1019.79 1019.60 1019.30 1018.85 1018.71 1018.72 1018.83 1018.21 1018.09 1017.59 1017.67 1018.26 1019.07 1018.65 1018.45 1018.05 1017.79 1017.38 1017.18 1017.25 1017.41 1017.26 1017.47 1018.26 1019.09 1019.29 1019.65 1020.09 1020.17 1020.16 1020.18 1020.53 1020.89 1020.73 1020.29 1019.78 1019.82 1020.04 1020.21 1019.96 1019.93 1019.94
1020.08 1020.06 1019.93 1019.62 1019.49 1019.16 1018.67 1018.42 1018.47 1018.19 1018.16 1018.01 1017.63 1017.68 1018.71 1018.86 1018.73 1018.50 1018.20 1018.00 1017.58 1017.43 1017.36 1017.41 1017.52 1018.06 1018.73 1019.33 1019.69 1019.91 1020.03 1020.27 1020.21 1020.28 1020.56 1021.14 1020.42 1019.56 1019.65 1019.79 1019.98 1020.02 1019.86 1019.60 1019.56
1020.11 1019.80 1019.80 1019.83 1019.50 1019.01 1018.85 1018.20 1017.92 1018.19 1018.01 1017.78 1017.66 1017.98 1018.91 1018.71 1018.93 1018.75 1018.54 1018.60 1018.03 1017.62 1017.58 1017.48 1017.75 1018.88 1019.41 1019.83 1020.39 1020.35 1020.43 1020.21 1020.31 1020.39 1020.73 1021.13 1020.73 1019.76 1019.74 1019.70 1019.86 1019.70 1019.55 1019.29 1019.21
1020.10 1019.75 1019.62 1019.64 1019.43 1019.01 1018.55 1018.24 1017.72 1017.95 1017.83 1017.75 1017.58 1018.71 1019.31 1019.03 1019.02 1019.00 1018.71 1018.70 1018.24 1018.05 1017.98 1018.04 1018.68 1019.77 1020.54 1020.62 1021.30 1021.33 1020.96 1020.76 1020.60 1020.71 1020.89 1021.03 1020.31 1019.89 1019.34 1019.52 1019.65 1019.40 1019.15 1019.04 1018.86
1019.66 1019.50 1019.68 1019.42 1019.34 1018.88 1018.57 1018.28 1018.62 1018.88 1018.54 1018.70 1018.87 1019.44 1019.58 1019.58 1019.21 1019.10 1019.01 1018.87 1018.31 1018.54 1018.97 1019.09 1020.10 1021.47 1021.70 1021.56 1021.51 1021.52 1021.51 1021.73 1020.95 1021.06 1021.01 1020.83 1020.42 1019.49 1019.14 1019.24 1019.20 1019.17 1019.03 1018.87 1018.78
1019.35 1019.64 1019.57 1019.30 1019.28 1018.91 1018.58 1018.58 1018.08 1018.15 1018.92 1019.06 1018.83 1019.20 1019.70 1020.02 1019.80 1019.55 1019.22 1019.41 1018.97 1019.30 1019.68 1020.25 1021.52 1022.15 1021.96 1021.79 1021.81 1021.95 1022.05 1022.39 1021.82 1021.56 1021.66 1021.04 1020.01 1018.78 1018.65 1018.61 1018.46 1018.50 1018.59 1018.59 1018.66
1018.81 1019.25 1019.26 1019.11 1019.10 1018.93 1018.49 1018.49 1018.21 1018.23 1018.72 1019.39 1019.29 1018.81 1019.63 1019.88 1020.32 1020.30 1019.93 1019.69 1019.67 1020.23 1020.84 1021.37 1022.48 1022.36 1022.34 1022.34 1022.38 1022.85 1022.99 1023.30 1023.73 1022.68 1021.83 1021.38 1020.26 1018.64 1018.02 1018.01 1018.05 1018.19 1018.25 1018.38 1018.50
1018.89 1018.78 1019.00 1018.91 1019.39 1018.84 1018.56 1018.31 1018.44 1018.70 1019.28 1019.71 1019.42 1019.52 1019.74 1019.63 1020.11 1020.26 1020.22 1020.48 1020.30 1021.05 1021.78 1022.63 1022.80 1022.82 1022.68 1022.98 1023.22 1023.46 1023.74 1023.72 1023.86 1023.96 1023.07 1022.15 1021.54 1019.44 1018.27 1018.07 1018.11 1018.24 1018.30 1018.30 1018.28
1018.53 1018.61 1018.84 1018.91 1018.87 1018.76 1018.74 1018.52 1018.60 1018.89 1019.73 1019.80 1019.71 1019.78 1019.61 1020.06 1020.15 1020.22 1020.22 1020.10 1020.98 1021.75 1022.32 1023.50 1023.47 1023.41 1023.25 1023.62 1023.65 1023.92 1024.08 1024.18 1024.34 1024.47 1024.27 1023.26 1022.79 1019.41 1018.49 1018.26 1017.98 1018.09 1018.30 1018.09 1018.25
1018.01 1018.41 1018.61 1018.72 1018.67 1018.53 1018.44 1018.73 1019.27 1019.70 1019.72 1019.70 1019.56 1019.57 1019.74 1019.90 1020.13 1020.23 1020.43 1020.52 1021.07 1022.12 1023.15 1023.93 1024.06 1024.17 1024.15 1024.04 1024.10 1024.12 1024.36 1024.69 1024.70 1025.05 1025.20 1023.76 1022.93 1019.79 1018.44 1017.56 1017.50 1017.76 1018.00 1017.95 1018.22
1017.63 1017.93 1018.50 1018.40 1018.40 1018.34 1018.63 1019.28 1020.39 1020.01 1019.67 1019.73 1019.42 1019.40 1019.46 1019.81 1020.14 1020.35 1020.53 1021.22 1021.80 1022.82 1024.23 1024.56 1024.65 1024.67 1024.67 1024.57 1024.42 1024.48 1024.85 1025.30 1025.88 1025.83 1025.34 1023.97 1023.03 1019.20 1017.57 1017.09 1016.97 1017.35 1017.88 1018.02 1018.29
1017.29 1017.74 1018.02 1018.26 1018.10 1018.40 1018.85 1019.95 1020.70 1019.34 1019.15 1018.52 1018.64 1019.16 1019.47 1019.44 1020.11 1020.48 1020.82 1021.47 1021.93 1022.54 1024.47 1025.06 1025.10 1025.26 1025.15 1025.13 1024.97 1024.94 1025.30 1026.04 1027.01 1027.27 1026.07 1024.17 1021.85 1018.45 1017.12 1016.87 1016.83 1017.07 1017.62 1017.97 1018.36
1017.18 1018.04 1018.27 1017.77 1018.18 1018.65 1019.14 1020.36 1018.79 1018.13 1017.93 1018.11 1018.68 1019.04 1019.46 1019.53 1019.67 1020.19 1020.96 1021.77 1022.10 1022.44 1023.41 1024.77 1025.57 1025.75 1025.67 1025.49 1025.62 1025.35 1025.71 1026.06 1026.83 1027.93 1026.64 1023.50 1020.53 1018.15 1017.27 1016.91 1016.95 1017.14 1017.47 1017.94 1018.45
1016.84 1018.05 1017.80 1017.60 1018.09 1018.85 1019.40 1019.09 1018.07 1017.01 1016.91 1017.18 1017.46 1017.78 1018.59 1019.19 1019.67 1020.12 1020.76 1021.15 1022.23 1022.77 1022.98 1024.26 1025.46 1026.32 1026.19 1025.95 1025.80 1025.67 1025.80 1026.23 1026.82 1027.56 1026.83 1023.80 1021.40 1018.70 1017.35 1016.93 1017.05 1017.40 1017.63 1018.11 1018.54
1016.39 1017.75 1017.73 1017.84 1017.93 1019.12 1019.36 1018.73 1017.53 1016.42 1016.04 1016.65 1016.78 1017.24 1017.39 1018.04 1018.96 1019.46 1020.26 1021.41 1021.87 1022.85 1023.28 1024.05 1025.04 1026.90 1026.80 1026.33 1025.86 1026.07 1025.86 1026.19 1026.61 1026.97 1026.88 1025.06 1020.99 1017.96 1017.14 1016.70 1016.92 1017.26 1017.67 1018.08 1018.60
1015.65 1017.41 1017.81 1018.09 1018.45 1018.95 1018.94 1017.89 1016.75 1016.19 1016.09 1016.07 1016.10 1016.30 1016.59 1017.34 1018.29 1019.17 1020.07 1020.83 1021.53 1022.23 1023.35 1023.76 1024.70 1026.45 1026.71 1026.45 1026.18 1025.86 1025.56 1025.82 1026.59 1027.25 1026.90 1025.52 1020.90 1017.80 1017.52 1017.18 1017.31 1017.63 1017.72 1018.00 1018.47
1015.24 1017.27 1018.17 1017.99 1018.09 1018.93 1018.57 1017.36 1016.62 1016.06 1015.72 1015.94 1015.98 1016.05 1016.37 1017.05 1018.19 1019.17 1020.31 1021.39 1021.79 1021.98 1022.67 1023.30 1024.76 1026.02 1026.39 1026.76 1026.53 1026.11 1025.61 1025.65 1026.14 1026.49 1026.22 1025.11 1020.65 1018.17 1017.92 1017.91 1017.82 1018.09 1018.21 1018.38 1018.67
1014.42 1017.01 1018.29 1018.21 1017.49 1017.47 1017.84 1016.92 1016.23 1015.64 1015.37 1015.33 1015.49 1015.76 1016.64 1017.54 1018.08 1019.49 1020.86 1021.78 1022.16 1022.09 1022.24 1022.96 1024.42 1025.46 1025.82 1025.52 1025.50 1026.10 1025.62 1025.63 1025.91 1026.32 1025.24 1023.17 1020.26 1018.33 1018.26 1018.20 1018.01 1018.19 1018.31 1018.65 1019.11
1013.39 1014.92 1015.25 1017.07 1017.09 1016.93 1016.55 1015.92 1015.74 1015.52 1015.62 1015.30 1015.76 1015.57 1016.07 1017.89 1018.88 1019.64 1020.92 1022.12 1022.43 1022.43 1022.57 1023.33 1024.41 1025.55 1025.33 1025.01 1024.94 1024.84 1024.87 1025.18 1025.52 1024.35 1023.95 1021.21 1020.42 1017.40 1017.65 1017.82 1017.72 1017.79 1017.98 1018.44 1019.18
1012.43 1013.55 1014.69 1014.69 1014.82 1016.12 1015.61 1014.74 1014.62 1014.88 1015.04 1015.21 1015.37 1015.33 1015.93 1016.70 1016.86 1018.70 1019.54 1020.85 1021.07 1022.56 1023.02 1023.09 1024.31 1025.30 1025.31 1024.85 1024.63 1024.35 1023.81 1024.11 1023.81 1023.51 1022.54 1021.17 1019.16 1016.82 1016.02 1016.79 1017.20 1017.50 1017.80 1018.18 1018.59
1010.92 1012.23 1012.22 1013.36 1014.05 1014.68 1013.00 1013.44 1013.62 1014.04 1014.52 1014.10 1014.56 1015.41 1016.32 1016.46 1016.94 1017.30 1018.41 1018.75 1019.55 1021.19 1022.63 1022.82 1023.87 1025.09 1025.18 1024.73 1024.21 1023.41 1021.07 1021.51 1021.52 1021.05 1020.71 1020.09 1016.34 1015.73 1015.73 1015.94 1016.09 1016.33 1016.77 1017.34 1017.74
Wind_Speed
7 8 8 8 7 7 8 7 8 8 9 9 8 10 9 11 10 6 6 7 8 15 10 7 5 3 4 3 3 4 5 3 3 4 2 2 3 5 2 3 2 4 4 4 2
5 7 7 8 7 7 7 6 6 7 8 8 8 7 8 7 1 7 4 12 10 10 5 7 3 5 4 3 5 6 5 2 1 3 3 2 3 1 3 3 2 2 3 4 3
4 5 6 8 8 7 7 8 7 6 7 7 7 7 5 4 3 4 13 14 11 5 3 4 6 1 5 4 5 4 4 5 3 4 5 5 1 2 2 2 1 5 2 3 3
5 6 6 6 8 9 8 8 9 7 4 5 6 6 5 1 2 3 14 14 11 3 3 3 3 2 4 4 3 7 5 5 2 4 5 3 7 5 4 5 6 3 2 2 5
4 5 6 6 6 7 8 8 7 7 7 4 4 5 1 6 2 7 13 11 6 2 4 3 5 3 5 6 4 5 3 5 5 4 3 4 6 7 7 6 6 5 4 7 6
4 6 6 8 9 7 7 7 6 7 7 7 5 2 1 4 4 7 9 8 7 4 6 7 4 3 7 4 4 3 5 6 4 2 3 3 5 5 6 7 6 7 9 8 7
4 6 7 8 9 9 7 7 9 8 6 8 5 1 7 3 4 7 7 4 4 3 4 4 3 6 5 4 2 6 3 1 3 3 1 2 7 9 6 7 6 9 9 9 9
3 6 8 8 10 10 8 6 6 6 6 7 4 2 3 2 4 4 7 3 6 4 3 3 5 6 4 3 2 2 2 2 2 1 2 5 9 6 8 8 9 10 9 8 10
6 5 7 10 11 10 12 7 4 5 5 4 2 3 1 0 3 4 3 3 6 2 1 2 4 4 2 3 4 3 1 1 1 3 1 3 8 7 6 7 8 8 9 7 8
7 5 6 8 10 12 11 6 3 5 3 2 2 4 2 1 2 4 3 5 2 2 3 5 5 5 5 5 2 3 3 4 2 3 2 5 14 12 10 9 9 8 9 7 8
7 6 7 7 10 11 7 2 4 4 9 3 2 2 2 4 1 3 3 6 1 5 3 4 8 3 1 2 0 1 2 5 3 1 2 4 9 12 7 6 7 7 5 4 5
6 6 7 8 11 9 1 1 2 2 6 1 4 5 2 2 1 6 8 0 2 3 1 7 4 0 2 2 2 3 2 4 6 2 2 5 15 12 6 6 6 5 5 6 4
9 6 6 7 9 3 1 1 2 3 5 1 1 5 3 2 2 6 6 1 4 5 5 6 3 0 2 4 4 4 2 2 4 9 4 6 8 5 1 4 3 5 6 4 3
9 7 5 7 3 2 1 3 3 2 6 2 1 1 1 2 3 2 3 1 4 5 4 5 1 0 1 3 3 2 1 2 4 7 2 4 7 7 4 6 5 7 6 6 3
10 7 4 1 2 1 2 1 3 1 3 2 3 0 0 1 4 3 1 3 3 3 3 2 1 1 2 1 2 2 1 1 2 2 3 4 5 9 2 6 7 8 8 6 5
11 8 3 1 1 2 3 2 3 9 7 2 4 4 4 2 1 1 2 5 3 4 6 3 2 3 1 1 1 1 1 1 2 2 5 4 5 8 4 4 2 3 6 6 4
12 10 4 1 2 3 3 4 7 6 4 5 6 5 4 4 2 3 3 2 4 5 3 4 1 1 2 1 2 0 3 5 8 6 5 3 3 11 5 3 4 4 3 3 4
13 10 3 1 1 4 2 7 4 5 7 3 5 6 4 5 2 3 3 2 1 4 5 4 7 1 4 2 1 2 3 7 4 2 6 1 6 5 3 3 3 4 1 3 5
15 2 2 3 4 3 5 3 12 9 8 10 5 5 3 3 4 4 5 5 5 5 8 5 4 1 3 2 2 1 2 2 7 2 4 4 8 3 1 1 2 1 2 5 2
6 4 3 6 6 3 5 7 5 4 6 3 7 5 8 7 6 6 7 3 5 1 0 6 3 2 2 2 2 1 2 4 4 1 4 6 6 6 3 2 4 4 4 0 3
4 4 1 3 4 4 5 8 6 4 4 7 5 6 6 9 8 7 8 1 4 4 1 5 5 4 3 4 5 1 1 2 3 4 5 2 8 8 6 6 8 7 7 3 0
4 3 2 2 4 2 5 8 6 6 2 3 3 3 7 7 7 5 7 1 7 8 6 4 6 3 6 3 2 2 2 4 5 5 1 3 11 3 5 5 5 7 7 5 4
5 4 1 0 6 3 4 4 4 5 6 7 7 4 1 6 6 4 5 3 5 4 7 8 1 3 7 3 4 3 4 3 3 3 6 6 10 1 5 5 6 7 8 6 4
5 5 1 2 1 7 6 5 7 3 4 4 5 5 4 3 5 6 4 2 0 2 3 2 4 7 6 4 4 2 4 5 5 4 4 8 10 12 7 8 8 8 7 7 6
3 5 7 9 6 4 8 11 9 7 2 4 2 4 9 5 3 4 4 3 3 4 3 2 5 3 5 6 4 5 5 7 9 7 7 6 11 18 7 9 9 8 7 6 7
7 6 1 3 12 17 9 10 14 5 9 6 5 12 7 8 9 11 10 5 7 2 5 3 3 2 5 0 3 6 8 9 14 4 12 9 25 17 21 8 5 8 6 7 7
3 2 4 8 7 15 17 7 15 10 6 4 11 8 7 7 5 4 4 5 13 12 8 6 7 4 5 1 1 9 13 15 5 6 9 9 18 3 5 6 6 6 6 8 8
Wind_Direction
14 18 8 5 6 358 355 355 357 353 355 358 2 341 339 347 335 35 36 302 307 313 322 282 296 286 11 12 16 27 63 55 34 61 116 28 76 349 202 160 158 131 133 153 62
13 24 7 2 356 356 351 341 348 343 344 354 354 349 343 355 315 61 291 330 323 326 356 5 356 347 26 23 9 70 77 123 51 69 23 48 48 313 346 296 146 102 102 35 39
17 23 13 356 356 348 344 335 334 340 339 343 348 336 340 345 80 351 338 333 321 312 260 309 304 335 69 37 352 35 121 153 47 59 11 329 16 234 251 305 165 196 241 13 352
1 9 7 2 351 347 348 336 328 329 330 330 341 337 329 285 136 341 333 328 322 271 303 312 301 69 89 57 1 94 51 105 91 57 16 348 306 291 206 225 176 147 122 310 288
347 355 4 353 345 344 344 337 324 315 313 309 340 345 264 54 8 312 327 327 342 318 8 10 58 66 104 113 47 81 143 86 122 95 272 324 284 256 249 188 174 172 210 251 244
336 340 350 346 338 341 338 334 321 305 304 304 331 5 304 80 313 323 333 337 10 41 23 30 61 99 82 57 72 111 118 137 150 119 214 237 272 334 268 169 190 214 225 233 211
320 325 335 337 338 330 334 337 322 304 308 302 331 353 63 160 319 333 345 344 358 15 62 354 348 73 116 92 95 139 101 200 197 130 275 34 281 229 231 184 215 248 235 221 213
291 313 327 329 329 322 319 320 298 290 305 303 340 72 88 271 318 347 343 313 3 23 85 337 33 84 78 99 105 187 93 106 222 68 177 86 276 257 201 179 230 255 265 230 219
274 304 320 320 322 320 314 308 273 290 268 299 35 93 116 201 21 317 27 322 309 7 357 324 66 112 76 91 23 3 243 82 207 142 229 138 275 273 226 208 239 258 273 251 227
266 289 311 314 317 320 313 283 296 314 256 250 67 35 269 133 309 324 328 304 357 317 24 49 55 71 29 46 167 309 359 322 299 197 192 258 261 274 276 206 234 251 265 274 234
248 277 296 312 316 320 344 14 45 335 41 97 77 96 47 332 49 355 348 331 265 45 66 19 66 70 54 49 4 346 355 296 302 115 312 247 279 276 285 214 237 265 284 315 327
234 265 291 312 316 320 42 228 215 205 103 84 129 99 57 346 313 349 4 19 33 86 352 31 77 271 325 20 55 33 334 314 282 333 328 294 281 266 237 236 203 234 284 291 302
210 232 274 306 315 324 216 251 257 280 90 67 348 99 157 94 39 315 1 360 93 56 14 116 155 221 348 42 38 49 113 28 259 318 266 298 302 321 104 190 216 238 235 265 239
214 215 259 315 319 278 251 188 256 275 75 249 6 35 127 109 57 273 357 309 34 134 102 90 263 322 46 87 354 204 15 337 313 10 314 36 282 309 232 236 248 253 239 233 172
201 207 237 11 279 178 204 170 290 2 51 131 139 178 101 130 133 12 273 16 85 94 107 199 116 54 78 126 346 195 287 256 294 327 4 7 69 270 84 270 242 247 232 229 195
186 193 216 211 163 218 127 45 25 48 253 186 140 157 120 170 84 133 35 47 128 79 34 95 351 44 77 313 282 311 243 279 4 61 34 238 120 285 223 222 200 221 243 228 194
175 173 166 221 203 155 96 61 49 136 329 208 184 161 178 153 155 196 143 86 142 76 341 352 44 57 11 13 304 317 55 338 355 11 208 155 45 244 286 245 171 168 227 225 182
163 153 197 189 139 116 91 59 104 238 211 183 140 125 178 153 150 164 127 149 313 95 98 135 321 10 343 56 198 39 125 146 223 297 273 294 239 253 178 150 112 97 358 291 307
135 153 172 195 144 101 87 106 199 198 167 148 73 111 201 217 151 154 189 174 196 174 140 116 297 348 33 355 67 254 48 147 103 42 33 251 285 333 236 236 139 149 225 305 89
138 164 211 147 133 94 86 229 211 189 133 153 152 160 165 189 158 169 183 198 173 279 327 192 57 298 333 335 1 351 182 64 6 54 304 296 285 236 316 284 207 208 248 211 29
115 140 184 147 124 67 182 224 216 222 144 149 182 152 172 169 175 181 182 332 150 146 56 132 103 296 20 213 187 126 48 74 110 132 164 291 274 210 206 180 189 190 187 196 254
151 147 183 126 113 173 168 192 207 160 116 145 135 139 159 153 155 163 153 72 146 150 147 190 134 165 226 287 339 311 198 169 123 256 176 145 273 223 217 182 170 186 196 184 177
136 107 333 158 173 209 272 220 214 142 181 171 174 185 25 153 110 120 101 339 134 137 158 189 43 23 338 355 357 247 214 176 116 78 210 139 262 279 260 262 253 237 237 214 201
120 134 60 260 356 146 156 202 184 219 170 167 142 118 112 70 23 142 123 177 49 127 108 133 102 163 194 194 132 224 232 194 147 127 205 225 270 272 272 251 261 256 251 237 230
152 192 189 186 227 187 177 173 168 179 240 178 31 196 158 128 73 118 106 140 26 140 67 152 164 152 250 236 216 223 194 188 201 208 184 250 225 262 234 231 234 242 256 225 224
143 153 166 144 146 184 184 206 197 167 147 209 181 198 173 157 181 183 144 182 184 137 172 209 118 117 291 336 188 261 233 210 223 234 268 291 283 268 269 252 263 252 252 242 233
117 98 150 156 162 177 207 172 198 165 224 184 178 131 174 187 113 94 47 109 151 145 170 142 133 131 260 62 65 295 227 202 197 205 187 204 241 193 254 256 258 274 214 233 229